Location: Béaulencourt
(50.0796°N, 2.8795°E)
Time: 14:52:18
(UTC+00:00)

Cosmos 2297 - Pass Details

Date: 20 January 2026
Orbit: 835 x 857 km, 71.0° (Epoch: 16 February)

Event Time Altitude Azimuth Distance (km) Brightness Sun altitude
Rises 06:46:20 0° 209° (SSW) 3,375 6.8 -8.1°
Reaches altitude 10° 06:48:46 10° 211° (SSW) 2,443 6.0 -7.8°
Maximum altitude 06:54:23 83° 299° (WNW) 848 3.7 -6.9°
Drops below altitude 10° 07:00:02 10° 28° (NNE) 2,459 6.2 -6.1°
Sets 07:02:29 0° 29° (NNE) 3,399 6.9 -5.7°
